• Processing (Info)

  • MPEC 2022-D43 : 2022 DV

    The following Minor Planet Electronic Circular may be linked-to from your own Web pages, but must not otherwise be redistributed electronically.

    A form allowing access to any MPEC is at the bottom of this page.


    Read MPEC 2022-D42 Read MPEC 2022-D44


    M.P.E.C. 2022-D43                             Issued 2022 February 23, 21:54 UT
    
         The Minor Planet Electronic Circulars contain information on unusual
             minor planets and routine data on comets.  They are published
        on behalf of Division F of the International Astronomical Union by the
              Minor Planet Center, Smithsonian Astrophysical Observatory,
                              Cambridge, MA 02138, U.S.A.
    
                 Prepared using the Tamkin Foundation Computer Network
    
                                  MPC@CFA.HARVARD.EDU
                URL https://www.minorplanetcenter.net/    ISSN 1523-6714
    
                                     2022 DV                                 
    
    
    Observations:
         K22D00V  C2022 02 23.28246408 32 29.898+28 47 07.74               VED043F52
         K22D00V  C2022 02 23.29752508 33 02.780+28 54 19.58         18.08GVED043F52
         K22D00V  C2022 02 23.31032608 33 30.577+29 00 23.17         18.54GVED043F52
         K22D00V  C2022 02 23.32314908 33 58.295+29 06 24.25         18.14GVED043F52
         K22D00V* C2022 02 23.77926 08 52 16.61 +32 17 01.2          18.7 RoED043K88
         K22D00V  C2022 02 23.77986 08 52 18.17 +32 17 18.5          18.5 RoED043K88
         K22D00V KC2022 02 23.79156 08 52 43.95 +32 22 05.9          18.1 RoED043K88
         K22D00V KC2022 02 23.79265 08 52 46.38 +32 22 33.5          18.0 RoED043K88
         K22D00V KC2022 02 23.79375 08 52 48.76 +32 23 00.2          18.1 RoED043K88
         K22D00V KC2022 02 23.79484 08 52 51.20 +32 23 26.9          18.1 RoED043K88
         K22D00V KC2022 02 23.79807408 53 01.91 +32 24 56.9          18.6 GVED043L01
         K22D00V KC2022 02 23.79903 08 53 00.43 +32 24 54.7          18.3 GXED043G02
         K22D00V KC2022 02 23.80001008 53 06.18 +32 25 44.6          18.6 GVED043L01
         K22D00V KC2022 02 23.80005 08 53 02.57 +32 25 34.3          18.2 RoED043K88
         K22D00V KC2022 02 23.80115 08 53 05.00 +32 26 01.1          18.3 RoED043K88
         K22D00V KC2022 02 23.80181408 53 10.15 +32 26 29.0          18.6 GVED043L01
         K22D00V KC2022 02 23.80224 08 53 07.35 +32 26 27.8          18.4 RoED043K88
         K22D00V KC2022 02 23.80364008 53 14.15 +32 27 13.7          18.6 GVED043L01
         K22D00V KC2022 02 23.80430 08 53 12.03 +32 27 03.3          18.5 GXED043G02
         K22D00V KC2022 02 23.80545508 53 18.13 +32 27 58.4          18.6 GVED043L01
         K22D00V KC2022 02 23.80955 08 53 23.53 +32 29 11.2          18.2 GXED043G02
         K22D00V KC2022 02 23.82767 08 54 07.02 +32 36 11.9          18.1 GVED043K74
         K22D00V KC2022 02 23.82802208 54 07.40 +32 37 02.2                XED043595
         K22D00V KC2022 02 23.83163 08 54 15.66 +32 37 47.5          18.1 GVED043K74
         K22D00V KC2022 02 23.83175408 54 15.51 +32 38 32.7          18.2 GXED043595
         K22D00V KC2022 02 23.83353808 54 19.40 +32 39 15.7          18.7 GXED043595
         K22D00V KC2022 02 23.83389 08 54 22.04 +32 39 40.6          17.8 VVED043K83
         K22D00V KC2022 02 23.83490 08 54 22.84 +32 39 06.2          18.7 GVED043K74
         K22D00V KC2022 02 23.83689 08 54 28.57 +32 40 52.8          18.3 VVED043K83
         K22D00V KC2022 02 23.83826 08 54 30.21 +32 40 27.9          18.4 GVED043K74
         K22D00V KC2022 02 23.83991 08 54 35.04 +32 42 05.2          19.4 VVED043K83
         K22D00V KC2022 02 23.84044608 54 36.41 +32 42 14.3          18.5 GVED043K63
         K22D00V KC2022 02 23.84182 08 54 37.97 +32 41 52.9          18.1 GVED043K74
         K22D00V 1C2022 02 23.84209108 54 36.85 +32 42 14.1                VED043246
         K22D00V 1C2022 02 23.84219008 54 37.12 +32 42 16.9                VED043246
         K22D00V 1C2022 02 23.84228908 54 37.31 +32 42 19.5                VED043246
         K22D00V 1C2022 02 23.84248808 54 37.78 +32 42 24.3                VED043246
         K22D00V 1C2022 02 23.84258708 54 37.97 +32 42 26.2                VED043246
         K22D00V 1C2022 02 23.84268608 54 38.17 +32 42 28.6                VED043246
         K22D00V 1C2022 02 23.84298308 54 38.83 +32 42 35.5          18.1 GVED043246
         K22D00V KC2022 02 23.84320008 54 42.34 +32 43 20.2          18.2 GVED043K63
         K22D00V KC2022 02 23.84514608 54 46.65 +32 44 07.7          18.3 GVED043K63
         K22D00V KC2022 02 23.84549 08 54 47.60 +32 44 13.7                XED043K78
         K22D00V KC2022 02 23.84605 08 54 47.23 +32 43 34.4          18.5 GVED043K74
         K22D00V KC2022 02 23.84741 08 54 51.76 +32 44 59.7          19.1 GXED043K78
         K22D00V KC2022 02 23.84927 08 54 55.82 +32 45 44.2          19.1 GXED043K78
         K22D00V KC2022 02 23.85794 08 55 13.17 +32 48 56.1          17.9 RVED043K51
         K22D00V KC2022 02 23.86153 08 55 20.94 +32 50 21.7          17.9 RVED043K51
         K22D00V KC2022 02 23.86591 08 55 30.38 +32 52 05.4          17.9 RVED043K51
         K22D00V KC2022 02 23.88706 08 56 16.53 +33 00 43.3          18.4 GVED043L39
         K22D00V KC2022 02 23.88850 08 56 19.61 +33 01 18.2          18.7 GVED043L39
         K22D00V KC2022 02 23.89053 08 56 23.89 +33 02 04.7          19.5 GVED043L39
    
    Observer details:
    246 Klet Observatory-KLENOT.  Observers M. Tichy, J. Ticha, M. Honkova.
        Measurer M. Tichy.  1.06-m f/2.7 reflector + 2048x2048 CCD.
    595 Farra d'Isonzo.  Observer E. Pettarin.  0.61-m f/4.5 reflector + CCD.
    F52 Pan-STARRS 2, Haleakala.  Observers J. Bulger, K. Chambers, T. Dukes, T.
        Lowe, A. Schultz, I. Smith.  Measurers S. Chastel, M. Huber, Y.
        Ramanjooloo, R. Wainscoat, R. Weryk.  1.8-m Ritchey-Chretien + CCD.
    G02 KYSUCE Observatory, Kysucke Nove Mesto.  Observer M. Urbanik.  0.40-m
        f/5.5 Corrected Dall-Kirkham + CCD.
    K51 Osservatorio del Celado, Castello Tesino.  Observer M. Campestrin.  0.80-m
        f/4 reflector + CCD.
    K63 G. Pascoli Observatory, Castelvecchio Pascoli.  Observer R. Bacci.  0.41-m
        f/3.21 Newtonian reflector + CCD.
    K74 Muensterschwarzach Observatory, Schwarzach.  Observer C. Gerhard.  0.3-m
        f/3.75 Newtonian reflector + CCD.
    K78 iota Scorpii Observatory, La Spezia.  Observers G. Scarfi, L. Sannino, S.
        Negri.  Measurers G. Scarfi, L. Sannino.  0.40-m f/6 reflector + CCD.
    K83 Beppe Forti Astronomical Observatory, Montelupo.  Observers M. Tombelli,
        A. Mazzanti, E. Venticinque, M. Iozzi, G. Interrante, T. Bitossi, M.
        Poggianti, A. Squilloni.  Measurers M. Tombelli, F. Bernardi, M.
        Calamandrei.  0.40-m f/8 Ritchey-Chretien + CCD.
    K88 GINOP-KHK, Piszkesteto.  Observer K. Sarneczky.  0.60-m Schmidt + CCD.
    L01 Visnjan Observatory, Tican.  Observers K. Korlevic, D. Pujagic.  1.0-m
        f/2.9 reflector + CCD.
    L39 Osservatorio Spica, Signa.  Observer M. Bertini.  0.30-m Newtonian
        reflector + CCD.
    
    Orbital elements:
    2022 DV                                                  Earth MOID = 0.0095 AU
    Epoch 2022 Jan. 21.0 TT = JDT 2459600.5                 Veres                   
    M 358.70352              (2000.0)            P               Q                  
    n   0.74577594     Peri.  326.19933     -0.49044299     -0.86916739             
    a   1.2042883      Node   153.00799     +0.82726924     -0.48719337             
    e   0.1922981      Incl.    8.02396     +0.27402787     -0.08479780             
    P   1.32           H   26.48          G   0.15           U   7                  
    Residuals in seconds of arc
    220223 F52 (0.6-  0.8-)   220223 G02  0.2+  0.2-    220223 246  0.4+  0.5+
    220223 F52  0.1-  0.1-    220223 L01  0.3-  0.1+    220223 246  0.1+  0.0
    220223 F52  0.1+  0.1+    220223 G02  0.1-  0.3-    220223 246  0.1-  0.0
    220223 F52  0.1+  0.0     220223 K74  0.3+  0.3+    220223 246  0.0   0.2-
    220223 K88 (3.0-  1.9-)   220223 595  0.2+  0.0     220223 K63  0.5-  0.3-
    220223 K88  0.2+  0.7+    220223 K74  0.2-  0.1+    220223 K63  0.7+  0.4+
    220223 K88  0.2-  0.7-    220223 595  0.0   0.3+    220223 K78  0.6-  0.4-
    220223 K88  0.2+  0.1+    220223 595  0.2+  0.2+    220223 K74  0.1-  0.2-
    220223 K88  0.3-  0.2-    220223 K83  0.5+  0.3+    220223 K78  0.5-  0.5-
    220223 K88  0.2+  0.3-    220223 K74  0.1+  0.1-    220223 K78  0.1-  0.6-
    220223 L01  0.4-  0.2+    220223 K83  1.0+  0.2+    220223 K51  0.5-  0.2-
    220223 G02  0.1+  0.0     220223 K74  0.0   0.5+    220223 K51  0.3-  0.2+
    220223 L01  0.2-  0.2+    220223 K83  0.1+  0.2-    220223 K51  0.4-  0.1+
    220223 K88  0.7-  0.6-    220223 K63  0.0   0.1+    220223 L39  0.5+  0.6-
    220223 K88  0.5-  0.7-    220223 K74  0.2-  0.0     220223 L39  0.5+  0.6+
    220223 L01  0.1-  0.2+    220223 246  0.4-  0.2-    220223 L39  0.3-  0.2-
    220223 K88  1.0-  0.7-    220223 246  0.2+  0.2+
    220223 L01  0.3-  0.0     220223 246  0.1-  0.4+
    
    Ephemeris:
    2022 DV                  a,e,i = 1.20, 0.19, 8                   q = 0.9727
    Date    TT    R. A. (2000) Decl.     Delta      r    Elong.  Phase     V
    2022 01 24    02 42 49.3 -44 17 46   0.08796 0.9728    79.9    95.0    24.5
    ...
    2022 02 08    03 30 02.2 -39 54 46   0.04440 0.9806    81.2    96.2    23.1
    ...
    2022 02 16    04 48 02.3 -27 43 56   0.02169 0.9900    95.2    83.5    21.1
    ...
    2022 02 22    07 40 00.6 +17 12 08   0.01312 0.9992   140.7    38.9    18.6
    2022 02 23    08 20 39.2 +26 29 34   0.01392 1.0009   146.6    32.9    18.6
    2022 02 24    09 00 32.1 +33 44 48   0.01538 1.0027   148.7    30.8    18.7
    ...
    2022 03 02    11 36 50.2 +47 26 32   0.03052 1.0141   138.8    40.1    20.5
    ...
    2022 03 10    12 42 18.3 +47 34 52   0.05527 1.0316   133.2    44.5    22.0
    ...
    2022 03 25    13 10 19.8 +44 30 13   0.1046  1.0702   132.3    43.6    23.4
    
    M. P. C. Staff               (C) Copyright 2022 MPC           M.P.E.C. 2022-D43
    


    Read MPEC 2022-D42 Read MPEC 2022-D44


    MPEC number:

    Enter an MPEC number in one of the following forms:

    • 1997-B01 (the full form)
    • J97B01 (the packed version of the full form)
    • B01 (the abbreviated form)